• In Italy
  • List of Countries
  • For 7 days
  • Water Temperature
  • Satellite Maps
  • Weather Map
  • Weather Widgets
  • user-avatar
    Login

    Hourly Weather Delhi

    Today, 18 July, Wednesday

    Time Temperature Precipitation Wind Pressure Humidity
    00:00 +36°C° 0.1 mm 3 mps 728 mmHg 55%
    01:00 +35°C° 0.1 mm 3 mps 728 mmHg 56%
    02:00 +35°C° 0.1 mm 3 mps 728 mmHg 58%
    03:00 +34°C° 1.1 mm 3 mps 728 mmHg 61%
    04:00 +34°C° 1.1 mm 3 mps 728 mmHg 64%
    05:00 +33°C° 1.1 mm 3 mps 728 mmHg 67%
    06:00 +34°C° 0.1 mm 3 mps 728 mmHg 64%
    07:00 +35°C° 0.1 mm 3 mps 729 mmHg 61%
    08:00 +36°C° 0.1 mm 3 mps 730 mmHg 57%
    09:00 +37°C° 0.2 mm 3 mps 729 mmHg 53%
    10:00 +39°C° 0.2 mm 3 mps 729 mmHg 49%
    11:00 +40°C° 0.2 mm 3 mps 729 mmHg 44%
    12:00 +40°C° 0 mm 3 mps 729 mmHg 43%
    13:00 +42°C° 0 mm 3 mps 728 mmHg 41%
    14:00 +41°C° 0 mm 2 mps 728 mmHg 39%
    15:00 +41°C° 0 mm 2 mps 728 mmHg 39%
    16:00 +41°C° 0 mm 2 mps 727 mmHg 39%
    17:00 +41°C° 0 mm 2 mps 727 mmHg 39%
    18:00 +40°C° 0.1 mm 2 mps 727 mmHg 41%
    19:00 +39°C° 0.1 mm 2 mps 727 mmHg 44%
    20:00 +38°C° 0.1 mm 2 mps 727 mmHg 47%
    21:00 +38°C° 0.3 mm 2 mps 727 mmHg 49%
    22:00 +37°C° 0.3 mm 2 mps 728 mmHg 51%
    23:00 +37°C° 0.3 mm 2 mps 728 mmHg 52%

    Tomorrow, 19 July, Thursday

    Time Temperature Precipitation Wind Pressure Humidity
    00:00 +36°C° 0.4 mm 2 mps 728 mmHg 54%
    01:00 +36°C° 0.4 mm 2 mps 727 mmHg 55%
    02:00 +36°C° 0.4 mm 2 mps 727 mmHg 56%
    03:00 +35°C° 0.5 mm 2 mps 727 mmHg 59%
    04:00 +35°C° 0.5 mm 2 mps 728 mmHg 61%
    05:00 +35°C° 0.5 mm 2 mps 728 mmHg 64%
    06:00 +35°C° 0.8 mm 3 mps 728 mmHg 62%
    07:00 +36°C° 0.8 mm 3 mps 728 mmHg 59%
    08:00 +37°C° 0.8 mm 4 mps 729 mmHg 57%
    09:00 +37°C° 1.7 mm 3 mps 729 mmHg 55%
    10:00 +38°C° 1.7 mm 3 mps 729 mmHg 53%
    11:00 +38°C° 1.7 mm 3 mps 729 mmHg 51%
    12:00 +38°C° 0.2 mm 2 mps 729 mmHg 52%
    13:00 +38°C° 0.2 mm 2 mps 728 mmHg 53%
    14:00 +38°C° 0.2 mm 2 mps 728 mmHg 53%
    15:00 +38°C° 0 mm 2 mps 727 mmHg 52%
    16:00 +39°C° 0 mm 2 mps 727 mmHg 51%
    17:00 +39°C° 0 mm 2 mps 727 mmHg 49%
    18:00 +38°C° 0.1 mm 2 mps 727 mmHg 52%
    19:00 +38°C° 0.1 mm 2 mps 727 mmHg 54%
    20:00 +37°C° 0.1 mm 2 mps 727 mmHg 57%
    21:00 +36°C° 0.3 mm 2 mps 727 mmHg 59%
    22:00 +36°C° 0.3 mm 2 mps 727 mmHg 61%
    23:00 +36°C° 0.3 mm 2 mps 728 mmHg 63%

    Day after tomorrow, 20 July, Friday

    Time Temperature Precipitation Wind Pressure Humidity
    00:00 +35°C° 0.3 mm 2 mps 727 mmHg 64%
    01:00 +34°C° 0.3 mm 1 mps 727 mmHg 64%
    02:00 +34°C° 0.3 mm 1 mps 727 mmHg 65%
    03:00 +33°C° 0.9 mm 1 mps 727 mmHg 66%
    04:00 +33°C° 0.9 mm 1 mps 727 mmHg 67%
    05:00 +33°C° 0.9 mm 1 mps 727 mmHg 68%
    06:00 +33°C° 1.8 mm 1 mps 727 mmHg 65%
    07:00 +34°C° 1.8 mm 1 mps 728 mmHg 62%
    08:00 +36°C° 1.8 mm 2 mps 728 mmHg 59%
    09:00 +37°C° 0.2 mm 2 mps 728 mmHg 55%
    10:00 +39°C° 0.2 mm 2 mps 728 mmHg 50%
    11:00 +40°C° 0.2 mm 2 mps 728 mmHg 45%
    12:00 +40°C° 0 mm 2 mps 728 mmHg 43%
    13:00 +41°C° 0 mm 2 mps 727 mmHg 42%
    14:00 +41°C° 0 mm 2 mps 727 mmHg 40%
    15:00 +41°C° 0.1 mm 2 mps 727 mmHg 41%
    16:00 +41°C° 0.1 mm 2 mps 726 mmHg 42%
    17:00 +40°C° 0.1 mm 2 mps 726 mmHg 43%
    18:00 +39°C° 0.9 mm 3 mps 726 mmHg 47%
    19:00 +38°C° 0.9 mm 3 mps 726 mmHg 51%
    20:00 +37°C° 0.9 mm 4 mps 726 mmHg 55%
    21:00 +36°C° 2.3 mm 4 mps 726 mmHg 60%
    22:00 +35°C° 2.3 mm 4 mps 727 mmHg 65%
    23:00 +34°C° 2.3 mm 5 mps 727 mmHg 70%

    21 July, Saturday

    Time Temperature Precipitation Wind Pressure Humidity
    00:00 +33°C° 0.3 mm 5 mps 727 mmHg 70%
    01:00 +33°C° 0.3 mm 4 mps 727 mmHg 70%
    02:00 +33°C° 0.3 mm 4 mps 726 mmHg 70%
    03:00 +33°C° 0.9 mm 4 mps 727 mmHg 72%
    04:00 +33°C° 0.9 mm 4 mps 727 mmHg 73%
    05:00 +32°C° 0.9 mm 4 mps 727 mmHg 75%
    06:00 +32°C° 1.7 mm 4 mps 727 mmHg 74%
    07:00 +33°C° 1.7 mm 4 mps 728 mmHg 73%
    08:00 +33°C° 1.7 mm 5 mps 729 mmHg 72%
    09:00 +34°C° 0.1 mm 4 mps 729 mmHg 69%
    10:00 +34°C° 0.1 mm 4 mps 729 mmHg 65%
    11:00 +35°C° 0.1 mm 3 mps 729 mmHg 62%
    12:00 +36°C° 0.3 mm 4 mps 728 mmHg 59%
    13:00 +37°C° 0.3 mm 4 mps 728 mmHg 55%
    14:00 +38°C° 0.3 mm 4 mps 728 mmHg 52%
    15:00 +37°C° 0.2 mm 3 mps 727 mmHg 53%
    16:00 +37°C° 0.2 mm 3 mps 727 mmHg 53%
    17:00 +37°C° 0.2 mm 3 mps 727 mmHg 54%
    18:00 +36°C° 0.1 mm 3 mps 727 mmHg 57%
    19:00 +36°C° 0.1 mm 2 mps 727 mmHg 59%
    20:00 +35°C° 0.1 mm 2 mps 727 mmHg 62%
    21:00 +35°C° 0 mm 2 mps 727 mmHg 62%
    22:00 +35°C° 0 mm 2 mps 727 mmHg 62%
    23:00 +35°C° 0 mm 2 mps 727 mmHg 62%

    22 July, Sunday

    Time Temperature Precipitation Wind Pressure Humidity
    00:00 +34°C° 0.2 mm 2 mps 727 mmHg 62%
    01:00 +34°C° 0.2 mm 3 mps 727 mmHg 63%
    02:00 +34°C° 0.2 mm 3 mps 726 mmHg 63%
    03:00 +33°C° 0.2 mm 4 mps 726 mmHg 64%
    04:00 +33°C° 0.2 mm 4 mps 727 mmHg 65%
    05:00 +33°C° 0.2 mm 4 mps 727 mmHg 65%
    06:00 +32°C° 0.5 mm 4 mps 727 mmHg 66%
    07:00 +32°C° 0.5 mm 4 mps 728 mmHg 67%
    08:00 +32°C° 0.5 mm 4 mps 728 mmHg 69%
    09:00 +33°C° 0.1 mm 4 mps 728 mmHg 65%
    10:00 +34°C° 0.1 mm 4 mps 728 mmHg 62%
    11:00 +35°C° 0.1 mm 4 mps 728 mmHg 59%
    12:00 +35°C° 0.1 mm 3 mps 728 mmHg 57%
    13:00 +36°C° 0.1 mm 3 mps 727 mmHg 55%
    14:00 +36°C° 0.1 mm 2 mps 727 mmHg 53%
    15:00 +36°C° 0.1 mm 2 mps 727 mmHg 53%
    16:00 +36°C° 0.1 mm 2 mps 726 mmHg 53%
    17:00 +36°C° 0.1 mm 2 mps 726 mmHg 53%
    18:00 +36°C° 0 mm 3 mps 726 mmHg 55%
    19:00 +35°C° 0 mm 3 mps 726 mmHg 56%
    20:00 +35°C° 0 mm 3 mps 727 mmHg 57%
    21:00 +34°C° 0.4 mm 3 mps 727 mmHg 59%
    22:00 +34°C° 0.4 mm 3 mps 727 mmHg 61%
    23:00 +33°C° 0.4 mm 3 mps 727 mmHg 63%

    23 July, Monday

    Time Temperature Precipitation Wind Pressure Humidity
    00:00 +33°C° 0 mm 3 mps 727 mmHg 63%
    01:00 +33°C° 0 mm 3 mps 726 mmHg 64%
    02:00 +33°C° 0 mm 3 mps 726 mmHg 65%
    03:00 +31°C° 0.4 mm 3 mps 726 mmHg 66%
    04:00 +31°C° 0.4 mm 2 mps 726 mmHg 68%
    05:00 +31°C° 0.4 mm 2 mps 727 mmHg 70%
    06:00 +31°C° 0.8 mm 2 mps 727 mmHg 69%
    07:00 +31°C° 0.8 mm 1 mps 728 mmHg 69%
    08:00 +32°C° 0.8 mm 1 mps 728 mmHg 68%
    09:00 +32°C° 0.1 mm 1 mps 728 mmHg 66%
    10:00 +33°C° 0.1 mm 1 mps 728 mmHg 64%
    11:00 +33°C° 0.1 mm 1 mps 728 mmHg 63%
    12:00 +35°C° 0.1 mm 2 mps 728 mmHg 61%
    13:00 +35°C° 0.1 mm 2 mps 728 mmHg 59%
    14:00 +36°C° 0.1 mm 3 mps 727 mmHg 58%
    15:00 +35°C° 0.5 mm 3 mps 727 mmHg 62%
    16:00 +34°C° 0.5 mm 4 mps 727 mmHg 66%
    17:00 +33°C° 0.5 mm 4 mps 727 mmHg 69%
    18:00 +33°C° 0.1 mm 4 mps 727 mmHg 72%
    19:00 +32°C° 0.1 mm 4 mps 728 mmHg 74%
    20:00 +32°C° 0.1 mm 4 mps 728 mmHg 77%
    21:00 +31°C° 0.2 mm 3 mps 728 mmHg 77%
    22:00 +30°C° 0.2 mm 3 mps 728 mmHg 77%
    23:00 +30°C° 0.2 mm 3 mps 729 mmHg 78%
    Show more